Location: Armstrong
(40.9123°N, 82.0110°W)
Time: 08:25:42
(UTC+00:00)

Okean O Rocket - Pass Details

Date: 29 October 2020
Orbit: 623 x 644 km, 98.2° (Epoch: 29 November)

Event Time Altitude Azimuth Distance (km) Brightness Sun altitude
Rises 23:50:07 0° 199° (SSW) 2,907 5.3 -16.2°
Reaches altitude 10° 23:52:44 10° 215° (SW) 2,001 4.7 -16.7°
Maximum altitude 23:56:06 22° 265° (W) 1,388 4.3 -17.3°
Drops below altitude 10° 23:59:28 10° 316° (NW) 2,005 4.7 -18.0°
Sets 00:02:06 0° 332° (NNW) 2,915 5.4 -18.5°
